| time (UTC) | temp F | wind direction | speed knots | gust knots | rain 1hr in | rain 24hr in | rain mn in | humidity % | barometer mb |
| 20260506033039 | 59 | 95 | 0.0 | 0.0 | 0.00 | 0.07 | 0.00 | 43 | 1005.5 |
| 20260506031544 | 60 | 44 | 0.0 | 0.0 | 0.00 | 0.07 | 0.00 | 42 | 1005.1 |
| 20260506030035 | 61 | 34 | 0.0 | 0.0 | 0.00 | 0.07 | 0.00 | 42 | 1004.7 |
| 20260506024534 | 61 | 45 | 2.6 | 7.0 | 0.00 | 0.07 | 0.00 | 42 | 1004.5 |
| 20260506023030 | 62 | 50 | 3.5 | 8.7 | 0.00 | 0.07 | 0.00 | 41 | 1004.2 |
| 20260506021526 | 62 | 33 | 3.5 | 9.6 | 0.00 | 0.07 | 0.00 | 40 | 1004.0 |
| 20260506020056 | 63 | 17 | 6.1 | 11.3 | 0.00 | 0.07 | 0.07 | 38 | 1003.7 |
| 20260506014542 | 64 | 32 | 5.2 | 13.0 | 0.00 | 0.07 | 0.07 | 37 | 1003.4 |
| 20260506013042 | 65 | 44 | 6.1 | 13.9 | 0.00 | 0.07 | 0.07 | 36 | 1003.3 |
| 20260506011544 | 66 | 34 | 7.0 | 15.6 | 0.00 | 0.07 | 0.07 | 37 | 1003.0 |
| 20260506010004 | 67 | 48 | 10.4 | 17.4 | 0.00 | 0.07 | 0.07 | 36 | 1002.8 |
| 20260506004505 | 68 | 57 | 6.1 | 13.0 | 0.00 | 0.07 | 0.07 | 35 | 1002.6 |
| 20260506003121 | 68 | 63 | 8.7 | 15.6 | 0.00 | 0.07 | 0.07 | 35 | 1002.4 |
| 20260506001555 | 68 | 36 | 10.4 | 19.1 | 0.00 | 0.07 | 0.07 | 34 | 1002.4 |
| 20260506000054 | 69 | 23 | 7.0 | 20.0 | 0.00 | 0.07 | 0.07 | 33 | 1002.3 |
| 20260505234551 | 70 | 41 | 9.6 | 18.2 | 0.00 | 0.07 | 0.07 | 29 | 1002.1 |
| 20260505233103 | 70 | 49 | 9.6 | 19.1 | 0.00 | 0.07 | 0.07 | 31 | 1002.1 |
| 20260505231550 | 70 | 23 | 7.8 | 20.0 | 0.00 | 0.07 | 0.07 | 33 | 1002.0 |
| 20260505230052 | 70 | 359 | 8.7 | 20.0 | 0.00 | 0.07 | 0.07 | 34 | 1002.0 |
| 20260505224544 | 71 | 39 | 7.0 | 14.8 | 0.00 | 0.07 | 0.07 | 32 | 1002.2 |
| 20260505223152 | 70 | 15 | 8.7 | 20.0 | 0.00 | 0.07 | 0.07 | 32 | 1002.2 |
| 20260505221538 | 70 | 37 | 9.6 | 17.4 | 0.00 | 0.07 | 0.07 | 31 | 1002.5 |
| 20260505220044 | 70 | 36 | 10.4 | 19.1 | 0.00 | 0.07 | 0.07 | 32 | 1002.8 |
| 20260505214534 | 71 | 3 | 11.3 | 19.1 | 0.00 | 0.07 | 0.07 | 30 | 1002.9 |
| 20260505213033 | 70 | 101 | 10.4 | 20.0 | 0.00 | 0.07 | 0.07 | 31 | 1003.0 |
| 20260505211529 | 70 | 1 | 8.7 | 17.4 | 0.00 | 0.07 | 0.07 | 33 | 1003.2 |
| 20260505210055 | 70 | 20 | 8.7 | 15.6 | 0.00 | 0.07 | 0.07 | 35 | 1003.3 |
| 20260505204554 | 69 | 15 | 9.6 | 17.4 | 0.00 | 0.07 | 0.07 | 36 | 1003.5 |
| 20260505203052 | 68 | 359 | 7.8 | 18.2 | 0.00 | 0.07 | 0.07 | 37 | 1003.6 |
| 20260505201555 | 68 | 19 | 2.6 | 12.2 | 0.00 | 0.07 | 0.07 | 43 | 1003.7 |
| 20260505200041 | 67 | 2 | 6.1 | 12.2 | 0.00 | 0.07 | 0.07 | 44 | 1004.0 |
| 20260505194538 | 66 | 27 | 6.1 | 12.2 | 0.00 | 0.07 | 0.07 | 49 | 1004.3 |
| 20260505193035 | 64 | 40 | 0.9 | 11.3 | 0.00 | 0.07 | 0.07 | 52 | 1004.6 |
| 20260505191534 | 64 | 35 | 1.7 | 5.2 | 0.00 | 0.07 | 0.07 | 55 | 1004.8 |
| 20260505190038 | 62 | 39 | 0.0 | 3.5 | 0.00 | 0.07 | 0.07 | 60 | 1005.0 |
| 20260505184532 | 61 | 157 | 0.0 | 0.0 | 0.00 | 0.07 | 0.07 | 63 | 1005.3 |
| 20260505183041 | 60 | 95 | 0.0 | 0.0 | 0.00 | 0.07 | 0.07 | 63 | 1005.4 |
| 20260505181533 | 59 | 89 | 0.0 | 0.0 | 0.00 | 0.07 | 0.07 | 63 | 1005.7 |
| 20260505180013 | 59 | 61 | 0.0 | 0.0 | 0.00 | 0.07 | 0.07 | 64 | 1005.6 |
| 20260505174511 | 59 | 51 | 0.0 | 0.0 | 0.00 | 0.07 | 0.07 | 65 | 1005.6 |
| 20260505173010 | 59 | 77 | 0.0 | 0.0 | 0.00 | 0.07 | 0.07 | 66 | 1005.5 |
| 20260505171525 | 58 | 32 | 0.0 | 1.7 | 0.00 | 0.07 | 0.07 | 67 | 1005.5 |
| 20260505170000 | 58 | 95 | 0.0 | 0.0 | 0.00 | 0.07 | 0.07 | 70 | 1005.4 |
| 20260505164601 | 58 | 94 | 0.0 | 0.0 | 0.00 | 0.07 | 0.07 | 70 | 1005.4 |
| 20260505163057 | 58 | 328 | 0.0 | 0.0 | 0.00 | 0.07 | 0.07 | 73 | 1005.2 |
| 20260505161618 | 56 | 51 | 0.0 | 0.0 | 0.00 | 0.07 | 0.07 | 76 | 1005.4 |
| 20260505153054 | 53 | 4 | 0.0 | 0.9 | 0.01 | 0.07 | 0.07 | 78 | 1005.2 |
| 20260505151554 | 53 | 351 | 0.0 | 3.5 | 0.01 | 0.07 | 0.07 | 79 | 1004.7 |
| 20260505124557 | 54 | 247 | 0.0 | 0.0 | 0.01 | 0.01 | 0.01 | 64 | 1003.4 |
| 20260505124506 | 54 | 243 | 0.0 | 0.0 | 0.01 | 0.01 | 0.01 | 64 | 1003.5 |
| 20260505123053 | 55 | 254 | 0.0 | 0.0 | 0.00 | 0.00 | 0.00 | 64 | 1003.6 |
| 20260505121551 | 55 | 291 | 0.0 | 0.0 | 0.00 | 0.00 | 0.00 | 59 | 1003.7 |
| 20260505120045 | 56 | 341 | 0.0 | 0.0 | 0.00 | 0.00 | 0.00 | 54 | 1004.0 |
| 20260505114518 | 56 | 316 | 0.0 | 0.0 | 0.00 | 0.00 | 0.00 | 52 | 1004.0 |
| 20260505113015 | 56 | 352 | 0.0 | 0.0 | 0.00 | 0.00 | 0.00 | 51 | 1004.2 |
| 20260505111517 | 56 | 295 | 0.0 | 0.0 | 0.00 | 0.00 | 0.00 | 49 | 1003.9 |
| 20260505101532 | 57 | 13 | 0.0 | 0.0 | 0.00 | 0.00 | 0.00 | 44 | 1004.7 |
| 20260505100030 | 57 | 13 | 0.0 | 0.0 | 0.00 | 0.00 | 0.00 | 43 | 1004.8 |
| 20260505094642 | 58 | 13 | 0.0 | 0.0 | 0.00 | 0.00 | 0.00 | 42 | 1004.9 |
| 20260505093032 | 58 | 12 | 0.0 | 0.0 | 0.00 | 0.00 | 0.00 | 41 | 1005.1 |
| 20260505091529 | 58 | 66 | 0.0 | 0.0 | 0.00 | 0.00 | 0.00 | 42 | 1005.3 |
| 20260505090137 | 58 | 47 | 0.0 | 0.0 | 0.00 | 0.00 | 0.00 | 42 | 1005.2 |
| 20260505084526 | 58 | 6 | 0.0 | 0.0 | 0.00 | 0.00 | 0.00 | 42 | 1005.5 |
| 20260505083146 | 58 | 7 | 0.0 | 0.0 | 0.00 | 0.00 | 0.00 | 42 | 1005.6 |
| 20260505081539 | 57 | 12 | 0.0 | 0.0 | 0.00 | 0.00 | 0.00 | 44 | 1006.0 |
| 20260505080038 | 57 | 266 | 0.0 | 0.0 | 0.00 | 0.00 | 0.00 | 46 | 1005.5 |
| 20260505074642 | 57 | 266 | 0.0 | 0.0 | 0.00 | 0.00 | 0.00 | 47 | 1006.0 |
| 20260505073111 | 57 | 265 | 0.0 | 0.0 | 0.00 | 0.00 | 0.00 | 48 | 1006.3 |
| 20260505071600 | 58 | 122 | 0.0 | 0.0 | 0.00 | 0.00 | 0.00 | 46 | 1006.1 |
| 20260505070052 | 58 | 122 | 0.0 | 0.0 | 0.00 | 0.00 | 0.00 | 44 | 1006.0 |
| 20260505064547 | 58 | 122 | 0.0 | 0.0 | 0.00 | 0.00 | 0.00 | 42 | 1006.1 |
| 20260505063153 | 59 | 122 | 0.0 | 0.0 | 0.00 | 0.00 | 0.00 | 42 | 1006.0 |
| 20260505061550 | 59 | 122 | 0.0 | 0.0 | 0.00 | 0.00 | 0.00 | 42 | 1006.2 |
| 20260505060022 | 59 | 122 | 0.0 | 0.0 | 0.00 | 0.00 | 0.00 | 41 | 1006.1 |
| 20260505054535 | 60 | 122 | 0.0 | 0.0 | 0.00 | 0.00 | 0.00 | 40 | 1006.0 |
| 20260505053046 | 60 | 122 | 0.0 | 0.0 | 0.00 | 0.00 | 0.00 | 39 | 1006.1 |
| 20260505051520 | 60 | 98 | 0.0 | 0.0 | 0.00 | 0.00 | 0.00 | 39 | 1006.4 |
| 20260505041522 | 62 | 117 | 0.0 | 2.6 | 0.00 | 0.00 | 0.00 | 36 | 1005.9 |
| 20260505040021 | 62 | 120 | 0.0 | 1.7 | 0.00 | 0.00 | 0.00 | 36 | 1005.5 |